Regional Weather Roundup
Issued by NWS Memphis, TN

Home | Current Version | Previous Version | Text Only | Print | Product List | Glossary On
Versions: 1 2 3 4 5 6 7 8 9 10 11 12 13 14 15 16 17 18 19 20 21 22 23 24 25 26 27 28 29 30 31 32 33 34 35 36 37 38 39 40 41 42 43 44 45 46 47 48 49 50
000
ASUS44 KMEG 280510
RWRMEG
MEMPHIS CWA HOURLY WEATHER ROUNDUP
NATIONAL WEATHER SERVICE MEMPHIS TN
1200 AM CDT THU JUL 28 2016

...WEST TENNESSEE...

CITY           SKY/WX    TMP DP  RH WIND       PRES   REMARKS
MEMPHIS INTL   CLOUDY    77  74  90 CALM      29.92S
NWS MEMPHIS      N/A     75 N/A N/A MISG        N/A
JACKSON        CLOUDY    78  76  93 W3        29.94S
LEXINGTON      CLOUDY    77  73  88 SW5       29.95S
DYERSBURG      CLOUDY    77  73  88 CALM      29.94S
UNION CITY     PTCLDY    73  73 100 CALM      29.93F
PARIS          MOCLDY    72  72 100 NE5       29.96S


...EASTERN ARKANSAS...

CITY           SKY/WX    TMP DP  RH WIND       PRES   REMARKS
JONESBORO      PTCLDY    76  75  97 CALM      29.91S
WEST MEMPHIS   CLOUDY    76  75  97 SE5       29.91R
BATESVILLE     CLOUDY    73  72  94 S3        29.94R
NEWPORT        CLOUDY    76  76 100 CALM      29.94R
WALNUT RIDGE   MOCLDY    75  73  94 NE3       29.91S
BLYTHEVILLE    CLOUDY    77  77 100 NE3       29.93S
SEARCY         PTCLDY    75  75 100 CALM      29.95R
STUTTGART      PTCLDY    75  70  83 SE5       29.93S
PINE BLUFF     CLOUDY    74  72  93 SW6       29.94S
MONTICELLO     CLOUDY    76  73  91 SW3       29.95F


...NORTH MISSISSIPPI...

CITY           SKY/WX    TMP DP  RH WIND       PRES   REMARKS
TUPELO         CLOUDY    77  73  87 SE8       29.96S
OXFORD         LGT RAIN  73  73 100 S8        29.96S
BATESVILLE     CLOUDY    75  73  93 SW6       29.94S
TUNICA         DRIZZLE   73  73 100 CALM      29.93S
CLARKSDALE     CLOUDY    77  77 100 SW9       29.93S
CORINTH        CLOUDY    77  73  88 S6        29.95S
GREENWOOD      CLOUDY    76  72  87 SW12      29.96S
COLUMBUS       MOCLDY    76  75  96 S7        29.98R
GOLDEN TRIANGL PTCLDY    75  70  83 S8        29.98S


...SOUTHEAST MISSOURI...

CITY           SKY/WX    TMP DP  RH WIND       PRES   REMARKS
KENNETT        CLOUDY    75  75 100 E6        29.90F
WEST PLAINS    CLOUDY    72  69  90 NW3       29.99S
POPLAR BLUFF   LGT RAIN  76  74  93 CALM      29.92S
CAPE GIRARDEAU CLOUDY    75  72  90 SE3       29.92R


...NORTHWEST ALABAMA...

CITY           SKY/WX    TMP DP  RH WIND       PRES   REMARKS
MUSCLE SHOALS  MOCLDY    77  73  87 S3        29.98F


...MIDDLE TENNESSEE...

CITY           SKY/WX    TMP DP  RH WIND       PRES   REMARKS
NASHVILLE      MOCLDY    83  70  64 S7        29.96R
CLARKSVILLE    TSTM      72  70  93 NE3       29.98F FOG
COLUMBIA       CLEAR     81  81 100 SW9       29.97R HX  91


...WESTERN KENTUCKY...

CITY           SKY/WX    TMP DP  RH WIND       PRES   REMARKS
PADUCAH        LGT RAIN  73  71  93 CALM      29.92F FOG
FORT CAMPBELL  RAIN      72  72 100 NE2       29.97F


...CENTRAL ARKANSAS...

CITY           SKY/WX    TMP DP  RH WIND       PRES   REMARKS
LITTLE ROCK    MOCLDY    78  74  87 S3        29.93R


SKY/WX REPORTED AS FAIR MEANS FEW OR NO CLOUDS BELOW
12 THOUSAND FEET.





USA.gov is the U.S. government's official web portal to all federal, state and local government web resources and services.